Terminal Aerodrome Forecast
Issued by NWS La Crosse, WI

Home | Current Version | Previous Version | Text Only | Print | Product List | Glossary On
Versions: 1 2 3 4 5 6 7 8 9 10 11 12 13 14 15 16 17 18 19 20 21 22 23 24 25 26 27 28
814
FTUS43 KARX 120524
TAFLSE
TAF
KLSE 120524Z 1206/1306 25004KT P6SM -SN BKN035
     FM120700 28009KT P6SM -SN BKN025
     FM121100 30010KT P6SM SCT030
     FM121500 32015G25KT P6SM SCT030
     FM130100 33010KT P6SM SKC=

USA.gov is the U.S. government's official web portal to all federal, state and local government web resources and services.